contact: severine.martini@mio.osupytheas.fr, dominique.lefevre@mio.osupytheas.fr
Project:EMSO Ligure-ouest http://www.emso-fr.org/EMSO-France
Sensor Optode, line 4330 Serial 272 
DOI : "https://doi.org/10.17882/97948" 
Title:EMSO Ligure Ouest : Data BathyDock capteur Optode - deploiement "2023-04-28"
Datetime,Profondeur,Latitude,Longitude,optode_type,serial,O2_concentration,O2_saturation,Temperature,Calibrated_Phase,Temp_Compensated_Phase,phase_blue_light,phase_red_light,Amplitude_blue_light,Amplitude_red_light,thermistor_bridge
time,m,degree_north,degree_east,1,1,umol.l-1,%,degree_C,degree,degree,degree,degree,mV,mV,mV
2023-11-26T00:00:07,2420,42.8014,5.9826,4330,272,186.777,57.195,13.302,36.023,36.603,41.195,4.592,295.5,544.8,291.5
2023-11-26T00:03:08,2420,42.8014,5.9826,4330,272,186.826,57.212,13.304,36.019,36.599,41.191,4.592,295.5,544.9,291.4
2023-11-26T00:06:07,2420,42.8014,5.9826,4330,272,186.696,57.171,13.303,36.028,36.608,41.199,4.590,295.5,544.8,291.5
2023-11-26T00:09:07,2420,42.8014,5.9826,4330,272,186.884,57.226,13.301,36.016,36.596,41.188,4.592,295.6,544.8,291.5
2023-11-26T00:12:07,2420,42.8014,5.9826,4330,272,186.817,57.207,13.302,36.020,36.601,41.192,4.592,295.6,544.9,291.5
2023-11-26T00:15:07,2420,42.8014,5.9826,4330,272,186.810,57.206,13.303,36.020,36.600,41.191,4.591,295.6,544.8,291.4
2023-11-26T00:18:07,2420,42.8014,5.9826,4330,272,186.728,57.180,13.302,36.026,36.606,41.194,4.588,295.5,544.8,291.5
2023-11-26T00:21:08,2420,42.8014,5.9826,4330,272,186.728,57.181,13.304,36.026,36.606,41.194,4.588,295.5,544.7,291.4
2023-11-26T00:24:08,2420,42.8014,5.9826,4330,272,186.683,57.166,13.302,36.029,36.609,41.199,4.590,295.5,544.9,291.5
2023-11-26T00:27:08,2420,42.8014,5.9826,4330,272,186.804,57.203,13.303,36.021,36.601,41.195,4.595,295.6,544.8,291.5
2023-11-26T00:30:07,2420,42.8014,5.9826,4330,272,186.735,57.182,13.303,36.025,36.605,41.196,4.590,295.6,544.8,291.5
2023-11-26T00:33:07,2420,42.8014,5.9826,4330,272,186.577,57.133,13.302,36.036,36.616,41.205,4.588,295.5,544.9,291.5
2023-11-26T00:36:07,2420,42.8014,5.9826,4330,272,186.786,57.197,13.302,36.023,36.603,41.195,4.591,295.6,544.8,291.5
2023-11-26T00:39:07,2420,42.8014,5.9826,4330,272,186.754,57.188,13.302,36.024,36.604,41.193,4.588,295.6,544.7,291.5
2023-11-26T00:42:07,2420,42.8014,5.9826,4330,272,186.511,57.116,13.305,36.039,36.619,41.210,4.591,295.5,544.8,291.4
2023-11-26T00:45:08,2420,42.8014,5.9826,4330,272,186.644,57.156,13.304,36.031,36.611,41.199,4.589,295.6,544.9,291.4
2023-11-26T00:48:08,2420,42.8014,5.9826,4330,272,186.761,57.190,13.303,36.023,36.604,41.198,4.595,295.6,544.8,291.5
2023-11-26T00:51:08,2420,42.8014,5.9826,4330,272,186.989,57.259,13.302,36.010,36.590,41.181,4.591,295.4,544.8,291.5
2023-11-26T00:54:07,2420,42.8014,5.9826,4330,272,186.562,57.131,13.304,36.036,36.616,41.202,4.586,295.5,544.8,291.4
2023-11-26T00:57:07,2420,42.8014,5.9826,4330,272,186.648,57.157,13.304,36.030,36.610,41.204,4.594,295.5,544.8,291.4
2023-11-26T01:00:07,2420,42.8014,5.9826,4330,272,186.703,57.173,13.303,36.027,36.607,41.200,4.592,295.6,544.8,291.5
2023-11-26T01:03:07,2420,42.8014,5.9826,4330,272,186.556,57.128,13.303,36.037,36.617,41.206,4.589,295.5,544.7,291.4
2023-11-26T01:06:07,2420,42.8014,5.9826,4330,272,186.586,57.137,13.303,36.035,36.615,41.207,4.592,295.5,544.8,291.5
2023-11-26T01:09:07,2420,42.8014,5.9826,4330,272,186.589,57.137,13.302,36.036,36.616,41.208,4.593,295.5,544.8,291.5
2023-11-26T01:12:08,2420,42.8014,5.9826,4330,272,186.646,57.156,13.303,36.031,36.611,41.202,4.591,295.6,544.8,291.4
2023-11-26T01:15:08,2420,42.8014,5.9826,4330,272,186.482,57.106,13.304,36.041,36.621,41.210,4.589,295.5,544.8,291.4
2023-11-26T01:18:08,2420,42.8014,5.9826,4330,272,186.534,57.124,13.305,36.037,36.617,41.209,4.591,295.6,544.8,291.4
2023-11-26T01:21:08,2420,42.8014,5.9826,4330,272,186.855,57.218,13.302,36.018,36.598,41.191,4.593,295.6,544.8,291.5
2023-11-26T01:24:08,2420,42.8014,5.9826,4330,272,186.589,57.138,13.303,36.035,36.615,41.208,4.593,295.7,544.9,291.5
2023-11-26T01:27:07,2420,42.8014,5.9826,4330,272,186.838,57.215,13.304,36.019,36.599,41.194,4.595,295.6,544.8,291.4
2023-11-26T01:30:07,2420,42.8014,5.9826,4330,272,186.843,57.216,13.303,36.018,36.598,41.190,4.592,295.6,544.8,291.4
2023-11-26T01:33:07,2420,42.8014,5.9826,4330,272,186.413,57.086,13.304,36.046,36.626,41.215,4.589,295.6,544.8,291.4
2023-11-26T01:36:07,2420,42.8014,5.9826,4330,272,186.633,57.152,13.303,36.032,36.612,41.202,4.590,295.6,544.8,291.5
2023-11-26T01:39:07,2420,42.8014,5.9826,4330,272,186.871,57.224,13.303,36.016,36.597,41.191,4.595,295.5,544.8,291.5
2023-11-26T01:42:07,2420,42.8014,5.9826,4330,272,186.689,57.169,13.303,36.028,36.608,41.195,4.587,295.6,544.8,291.4
2023-11-26T01:45:07,2420,42.8014,5.9826,4330,272,186.833,57.211,13.302,36.020,36.600,41.190,4.590,295.6,544.9,291.5
2023-11-26T01:48:07,2420,42.8014,5.9826,4330,272,186.612,57.146,13.303,36.033,36.613,41.207,4.594,295.5,544.8,291.4
2023-11-26T01:51:07,2420,42.8014,5.9826,4330,272,186.578,57.136,13.304,36.035,36.615,41.206,4.591,295.6,544.8,291.4
2023-11-26T01:54:07,2420,42.8014,5.9826,4330,272,186.616,57.151,13.307,36.031,36.611,41.202,4.591,295.6,544.8,291.3
2023-11-26T01:57:07,2420,42.8014,5.9826,4330,272,186.886,57.236,13.308,36.013,36.593,41.187,4.594,295.6,544.8,291.3
2023-11-26T02:00:08,2420,42.8014,5.9826,4330,272,186.568,57.137,13.307,36.034,36.614,41.203,4.589,295.6,544.8,291.3
2023-11-26T02:03:07,2420,42.8014,5.9826,4330,272,186.644,57.158,13.305,36.030,36.610,41.202,4.592,295.6,544.8,291.4
2023-11-26T02:06:07,2420,42.8014,5.9826,4330,272,186.550,57.128,13.304,36.037,36.617,41.209,4.592,295.6,544.8,291.4
2023-11-26T02:09:07,2420,42.8014,5.9826,4330,272,186.831,57.214,13.304,36.019,36.599,41.193,4.594,295.5,544.8,291.4
2023-11-26T02:12:07,2420,42.8014,5.9826,4330,272,186.612,57.146,13.304,36.033,36.613,41.200,4.587,295.6,544.8,291.4
2023-11-26T02:15:08,2420,42.8014,5.9826,4330,272,186.602,57.143,13.303,36.034,36.614,41.209,4.595,295.6,544.8,291.4
2023-11-26T02:18:08,2420,42.8014,5.9826,4330,272,186.728,57.181,13.303,36.025,36.606,41.199,4.593,295.6,544.9,291.4
2023-11-26T02:21:08,2420,42.8014,5.9826,4330,272,186.533,57.124,13.305,36.037,36.617,41.208,4.591,295.5,544.8,291.4
2023-11-26T02:24:08,2420,42.8014,5.9826,4330,272,186.766,57.195,13.305,36.023,36.603,41.191,4.588,295.5,544.8,291.4
2023-11-26T02:27:07,2420,42.8014,5.9826,4330,272,186.809,57.210,13.306,36.019,36.599,41.185,4.586,295.7,544.8,291.3
2023-11-26T02:30:07,2420,42.8014,5.9826,4330,272,186.844,57.222,13.307,36.016,36.596,41.188,4.592,295.6,544.8,291.3
2023-11-26T02:33:07,2420,42.8014,5.9826,4330,272,186.446,57.094,13.303,36.044,36.624,41.213,4.589,295.6,544.8,291.5
2023-11-26T02:36:07,2420,42.8014,5.9826,4330,272,186.764,57.193,13.304,36.023,36.603,41.196,4.593,295.6,544.8,291.4
2023-11-26T02:39:07,2420,42.8014,5.9826,4330,272,186.689,57.171,13.305,36.027,36.608,41.202,4.594,295.6,544.9,291.4
2023-11-26T02:42:07,2420,42.8014,5.9826,4330,272,186.898,57.234,13.304,36.014,36.594,41.185,4.590,295.6,544.9,291.4
2023-11-26T02:45:08,2420,42.8014,5.9826,4330,272,186.721,57.180,13.304,36.026,36.606,41.199,4.593,295.6,544.8,291.4
2023-11-26T02:48:08,2420,42.8014,5.9826,4330,272,186.594,57.142,13.305,36.034,36.614,41.204,4.590,295.5,544.7,291.4
2023-11-26T02:51:08,2420,42.8014,5.9826,4330,272,186.619,57.148,13.303,36.033,36.613,41.201,4.589,295.5,544.8,291.4
2023-11-26T02:54:08,2420,42.8014,5.9826,4330,272,186.756,57.191,13.304,36.023,36.604,41.197,4.594,295.6,544.8,291.4
2023-11-26T02:57:07,2420,42.8014,5.9826,4330,272,186.846,57.220,13.306,36.017,36.597,41.185,4.588,295.7,544.9,291.4
2023-11-26T03:00:07,2420,42.8014,5.9826,4330,272,186.694,57.174,13.306,36.027,36.607,41.195,4.588,295.6,544.8,291.4
2023-11-26T03:03:07,2420,42.8014,5.9826,4330,272,186.966,57.255,13.304,36.010,36.590,41.186,4.596,295.5,544.8,291.4
2023-11-26T03:06:07,2420,42.8014,5.9826,4330,272,186.826,57.211,13.304,36.019,36.599,41.192,4.592,295.6,544.9,291.4
2023-11-26T03:09:07,2420,42.8014,5.9826,4330,272,186.548,57.131,13.307,36.036,36.616,41.206,4.590,295.6,544.9,291.3
2023-11-26T03:12:07,2420,42.8014,5.9826,4330,272,186.601,57.144,13.305,36.033,36.613,41.202,4.589,295.6,544.8,291.4
2023-11-26T03:15:07,2420,42.8014,5.9826,4330,272,186.458,57.104,13.308,36.041,36.621,41.214,4.594,295.6,544.8,291.3
2023-11-26T03:18:08,2420,42.8014,5.9826,4330,272,186.730,57.189,13.309,36.023,36.603,41.197,4.595,295.5,544.8,291.3
2023-11-26T03:21:08,2420,42.8014,5.9826,4330,272,186.656,57.160,13.304,36.030,36.610,41.198,4.588,295.6,544.8,291.4
2023-11-26T03:24:08,2420,42.8014,5.9826,4330,272,186.647,57.157,13.304,36.030,36.610,41.197,4.586,295.6,544.8,291.4
2023-11-26T03:27:08,2420,42.8014,5.9826,4330,272,186.715,57.179,13.305,36.026,36.606,41.197,4.591,295.6,544.8,291.4
2023-11-26T03:30:07,2420,42.8014,5.9826,4330,272,186.773,57.200,13.307,36.020,36.601,41.192,4.591,295.6,544.8,291.3
2023-11-26T03:33:07,2420,42.8014,5.9826,4330,272,186.820,57.211,13.305,36.018,36.599,41.189,4.590,295.6,544.8,291.4
2023-11-26T03:36:07,2420,42.8014,5.9826,4330,272,186.788,57.202,13.305,36.021,36.601,41.191,4.590,295.6,544.8,291.4
2023-11-26T03:39:07,2420,42.8014,5.9826,4330,272,186.562,57.131,13.304,36.036,36.616,41.203,4.587,295.6,544.8,291.4
2023-11-26T03:42:07,2420,42.8014,5.9826,4330,272,186.797,57.204,13.305,36.021,36.601,41.187,4.586,295.5,544.8,291.4
2023-11-26T03:45:08,2420,42.8014,5.9826,4330,272,186.629,57.153,13.305,36.031,36.611,41.201,4.589,295.5,544.8,291.4
2023-11-26T03:48:08,2420,42.8014,5.9826,4330,272,186.884,57.232,13.306,36.014,36.594,41.190,4.596,295.5,544.8,291.4
2023-11-26T03:51:08,2420,42.8014,5.9826,4330,272,186.694,57.175,13.307,36.027,36.607,41.199,4.593,295.6,544.8,291.3
2023-11-26T03:54:08,2420,42.8014,5.9826,4330,272,186.605,57.143,13.303,36.034,36.614,41.206,4.592,295.5,544.8,291.5
2023-11-26T03:57:07,2420,42.8014,5.9826,4330,272,186.548,57.129,13.305,36.036,36.617,41.204,4.587,295.6,544.9,291.4
2023-11-26T04:00:07,2420,42.8014,5.9826,4330,272,186.823,57.210,13.303,36.020,36.600,41.192,4.593,295.5,544.9,291.4
2023-11-26T04:03:08,2420,42.8014,5.9826,4330,272,186.523,57.122,13.306,36.038,36.618,41.205,4.587,295.6,544.8,291.3
2023-11-26T04:06:07,2420,42.8014,5.9826,4330,272,186.702,57.174,13.304,36.027,36.607,41.198,4.591,295.6,544.8,291.4
2023-11-26T04:09:07,2420,42.8014,5.9826,4330,272,186.583,57.138,13.305,36.034,36.614,41.200,4.585,295.6,544.8,291.4
2023-11-26T04:12:07,2420,42.8014,5.9826,4330,272,186.479,57.109,13.307,36.040,36.620,41.208,4.588,295.6,544.8,291.3
2023-11-26T04:15:07,2420,42.8014,5.9826,4330,272,186.686,57.170,13.305,36.028,36.608,41.196,4.588,295.5,544.8,291.4
2023-11-26T04:18:07,2420,42.8014,5.9826,4330,272,186.848,57.219,13.304,36.017,36.597,41.190,4.593,295.6,544.7,291.4
2023-11-26T04:21:07,2420,42.8014,5.9826,4330,272,186.714,57.179,13.305,36.025,36.605,41.196,4.591,295.6,544.9,291.4
2023-11-26T04:24:07,2420,42.8014,5.9826,4330,272,186.600,57.145,13.305,36.033,36.613,41.208,4.595,295.5,544.8,291.4
2023-11-26T04:27:08,2420,42.8014,5.9826,4330,272,186.792,57.202,13.305,36.021,36.601,41.195,4.594,295.5,544.8,291.4
2023-11-26T04:30:08,2420,42.8014,5.9826,4330,272,186.864,57.222,13.303,36.017,36.597,41.191,4.594,295.6,544.8,291.5
2023-11-26T04:33:07,2420,42.8014,5.9826,4330,272,186.683,57.168,13.304,36.029,36.609,41.205,4.596,295.6,544.9,291.4
2023-11-26T04:36:07,2420,42.8014,5.9826,4330,272,186.820,57.212,13.306,36.019,36.599,41.192,4.592,295.5,544.8,291.4
2023-11-26T04:39:07,2420,42.8014,5.9826,4330,272,186.784,57.200,13.305,36.021,36.601,41.191,4.590,295.7,544.8,291.4
2023-11-26T04:42:07,2420,42.8014,5.9826,4330,272,186.783,57.201,13.305,36.021,36.601,41.193,4.592,295.6,544.8,291.4
2023-11-26T04:45:07,2420,42.8014,5.9826,4330,272,186.695,57.175,13.306,36.027,36.607,41.197,4.591,295.5,544.8,291.4
2023-11-26T04:48:07,2420,42.8014,5.9826,4330,272,186.713,57.178,13.305,36.026,36.607,41.196,4.590,295.6,544.8,291.4
2023-11-26T04:51:08,2420,42.8014,5.9826,4330,272,186.790,57.202,13.305,36.021,36.601,41.193,4.592,295.5,544.8,291.4
2023-11-26T04:54:08,2420,42.8014,5.9826,4330,272,186.505,57.116,13.306,36.039,36.619,41.213,4.594,295.6,544.8,291.4
2023-11-26T04:57:08,2420,42.8014,5.9826,4330,272,186.682,57.168,13.304,36.028,36.608,41.200,4.592,295.6,544.8,291.4
2023-11-26T05:00:07,2420,42.8014,5.9826,4330,272,186.758,57.193,13.306,36.023,36.603,41.198,4.595,295.6,544.8,291.4
2023-11-26T05:03:07,2420,42.8014,5.9826,4330,272,186.715,57.178,13.304,36.026,36.607,41.198,4.592,295.7,544.8,291.4
2023-11-26T05:06:07,2420,42.8014,5.9826,4330,272,186.614,57.147,13.304,36.033,36.613,41.198,4.585,295.6,544.9,291.4
2023-11-26T05:09:07,2420,42.8014,5.9826,4330,272,186.606,57.144,13.304,36.033,36.613,41.203,4.590,295.6,544.8,291.4
2023-11-26T05:12:07,2420,42.8014,5.9826,4330,272,186.902,57.234,13.303,36.015,36.595,41.190,4.595,295.5,544.8,291.5
2023-11-26T05:15:08,2420,42.8014,5.9826,4330,272,186.467,57.101,13.303,36.043,36.623,41.213,4.589,295.5,544.8,291.5
2023-11-26T05:18:08,2420,42.8014,5.9826,4330,272,186.638,57.156,13.305,36.031,36.611,41.200,4.589,295.5,544.9,291.4
2023-11-26T05:21:08,2420,42.8014,5.9826,4330,272,186.832,57.214,13.304,36.019,36.599,41.182,4.583,295.6,544.8,291.4
2023-11-26T05:24:08,2420,42.8014,5.9826,4330,272,186.650,57.158,13.304,36.031,36.611,41.193,4.582,295.7,544.8,291.4
2023-11-26T05:27:07,2420,42.8014,5.9826,4330,272,186.786,57.197,13.302,36.022,36.602,41.199,4.596,295.6,544.9,291.5
2023-11-26T05:30:07,2420,42.8014,5.9826,4330,272,186.717,57.176,13.302,36.027,36.607,41.196,4.590,295.6,544.8,291.5
2023-11-26T05:33:07,2420,42.8014,5.9826,4330,272,186.654,57.160,13.304,36.030,36.610,41.203,4.593,295.6,544.9,291.4
2023-11-26T05:36:07,2420,42.8014,5.9826,4330,272,186.949,57.247,13.302,36.012,36.592,41.187,4.595,295.6,544.8,291.5
2023-11-26T05:39:07,2420,42.8014,5.9826,4330,272,186.636,57.152,13.302,36.032,36.612,41.199,4.586,295.6,544.8,291.5
2023-11-26T05:42:07,2420,42.8014,5.9826,4330,272,187.148,57.309,13.303,35.998,36.579,41.177,4.598,295.5,544.9,291.5
2023-11-26T05:45:08,2420,42.8014,5.9826,4330,272,186.904,57.234,13.302,36.015,36.595,41.183,4.588,295.5,544.9,291.5
2023-11-26T05:48:08,2420,42.8014,5.9826,4330,272,186.794,57.199,13.301,36.022,36.602,41.192,4.590,295.5,544.9,291.5
2023-11-26T05:51:08,2420,42.8014,5.9826,4330,272,186.900,57.232,13.302,36.015,36.595,41.187,4.592,295.5,544.9,291.5
2023-11-26T05:54:08,2420,42.8014,5.9826,4330,272,187.009,57.266,13.302,36.008,36.588,41.183,4.594,295.6,544.8,291.5
2023-11-26T05:57:07,2420,42.8014,5.9826,4330,272,186.850,57.217,13.302,36.019,36.599,41.190,4.591,295.5,544.8,291.5
2023-11-26T06:00:07,2420,42.8014,5.9826,4330,272,186.836,57.212,13.301,36.019,36.599,41.194,4.595,295.5,544.9,291.5
2023-11-26T06:03:07,2420,42.8014,5.9826,4330,272,186.740,57.181,13.300,36.026,36.606,41.195,4.588,295.6,544.9,291.5
2023-11-26T06:06:07,2420,42.8014,5.9826,4330,272,186.842,57.214,13.301,36.019,36.599,41.191,4.592,295.5,544.9,291.5
2023-11-26T06:09:07,2420,42.8014,5.9826,4330,272,186.771,57.193,13.303,36.023,36.603,41.194,4.590,295.5,544.9,291.5
2023-11-26T06:12:08,2420,42.8014,5.9826,4330,272,186.652,57.155,13.301,36.032,36.612,41.204,4.592,295.5,544.8,291.5
2023-11-26T06:15:08,2420,42.8014,5.9826,4330,272,186.890,57.229,13.302,36.016,36.596,41.189,4.593,295.5,544.9,291.5
2023-11-26T06:18:08,2420,42.8014,5.9826,4330,272,186.680,57.164,13.302,36.030,36.610,41.201,4.591,295.5,544.9,291.5
2023-11-26T06:21:08,2420,42.8014,5.9826,4330,272,186.756,57.187,13.301,36.025,36.605,41.195,4.590,295.6,544.8,291.5
2023-11-26T06:24:07,2420,42.8014,5.9826,4330,272,186.783,57.196,13.302,36.023,36.603,41.195,4.592,295.5,544.9,291.5
2023-11-26T06:27:07,2420,42.8014,5.9826,4330,272,186.785,57.196,13.301,36.023,36.603,41.191,4.588,295.5,544.8,291.5
2023-11-26T06:30:07,2420,42.8014,5.9826,4330,272,186.901,57.232,13.302,36.015,36.596,41.188,4.593,295.5,544.8,291.5
2023-11-26T06:33:07,2420,42.8014,5.9826,4330,272,187.003,57.262,13.301,36.009,36.590,41.185,4.595,295.5,544.8,291.5
2023-11-26T06:36:07,2420,42.8014,5.9826,4330,272,186.698,57.170,13.302,36.029,36.609,41.199,4.590,295.5,544.9,291.5
2023-11-26T06:39:07,2420,42.8014,5.9826,4330,272,186.676,57.164,13.302,36.030,36.610,41.200,4.590,295.6,544.8,291.5
2023-11-26T06:42:08,2420,42.8014,5.9826,4330,272,186.788,57.196,13.301,36.023,36.603,41.192,4.589,295.5,544.8,291.5
2023-11-26T06:45:08,2420,42.8014,5.9826,4330,272,186.882,57.226,13.302,36.017,36.597,41.188,4.591,295.5,544.9,291.5
2023-11-26T06:48:08,2420,42.8014,5.9826,4330,272,186.886,57.227,13.302,36.016,36.596,41.188,4.592,295.5,544.8,291.5
2023-11-26T06:51:08,2420,42.8014,5.9826,4330,272,186.845,57.214,13.301,36.019,36.599,41.194,4.595,295.5,544.8,291.5
2023-11-26T06:54:08,2420,42.8014,5.9826,4330,272,187.039,57.273,13.301,36.007,36.587,41.182,4.595,295.5,544.9,291.5
2023-11-26T06:57:07,2420,42.8014,5.9826,4330,272,186.955,57.247,13.301,36.012,36.592,41.187,4.595,295.5,544.9,291.5
2023-11-26T07:00:07,2420,42.8014,5.9826,4330,272,186.750,57.187,13.303,36.025,36.605,41.196,4.592,295.5,544.8,291.5
2023-11-26T07:03:07,2420,42.8014,5.9826,4330,272,186.971,57.252,13.301,36.011,36.591,41.184,4.594,295.4,544.9,291.5
2023-11-26T07:06:07,2420,42.8014,5.9826,4330,272,186.838,57.216,13.304,36.018,36.598,41.188,4.590,295.5,544.8,291.4
2023-11-26T07:09:07,2420,42.8014,5.9826,4330,272,186.948,57.247,13.302,36.012,36.593,41.178,4.585,295.5,544.9,291.5
2023-11-26T07:12:07,2420,42.8014,5.9826,4330,272,186.821,57.207,13.301,36.021,36.601,41.192,4.591,295.4,544.8,291.5
2023-11-26T07:15:07,2420,42.8014,5.9826,4330,272,186.617,57.144,13.301,36.034,36.614,41.205,4.591,295.5,544.9,291.5
2023-11-26T07:18:08,2420,42.8014,5.9826,4330,272,186.882,57.226,13.302,36.016,36.596,41.190,4.594,295.5,544.9,291.5
2023-11-26T07:21:08,2420,42.8014,5.9826,4330,272,186.622,57.150,13.304,36.032,36.612,41.200,4.588,295.5,544.9,291.4
2023-11-26T07:24:08,2420,42.8014,5.9826,4330,272,186.944,57.246,13.302,36.012,36.592,41.187,4.595,295.5,544.8,291.5
2023-11-26T07:27:08,2420,42.8014,5.9826,4330,272,186.766,57.191,13.302,36.024,36.604,41.191,4.587,295.5,545.0,291.5
2023-11-26T07:30:07,2420,42.8014,5.9826,4330,272,186.691,57.170,13.304,36.028,36.608,41.202,4.594,295.5,544.8,291.4
2023-11-26T07:33:07,2420,42.8014,5.9826,4330,272,186.680,57.165,13.302,36.029,36.609,41.198,4.588,295.5,544.9,291.5
2023-11-26T07:36:07,2420,42.8014,5.9826,4330,272,186.938,57.242,13.301,36.013,36.593,41.188,4.594,295.5,544.8,291.5
2023-11-26T07:39:08,2420,42.8014,5.9826,4330,272,186.879,57.223,13.300,36.017,36.597,41.192,4.594,295.5,544.9,291.6
2023-11-26T07:42:08,2420,42.8014,5.9826,4330,272,186.628,57.149,13.302,36.033,36.613,41.196,4.583,295.5,544.9,291.5
2023-11-26T07:45:08,2420,42.8014,5.9826,4330,272,186.744,57.184,13.301,36.026,36.606,41.197,4.591,295.5,544.9,291.5
2023-11-26T07:48:07,2420,42.8014,5.9826,4330,272,187.104,57.295,13.302,36.002,36.582,41.177,4.594,295.5,544.9,291.5
2023-11-26T07:51:07,2420,42.8014,5.9826,4330,272,186.752,57.185,13.300,36.025,36.605,41.197,4.591,295.6,544.8,291.5
2023-11-26T07:54:07,2420,42.8014,5.9826,4330,272,186.785,57.196,13.301,36.023,36.603,41.196,4.593,295.5,544.8,291.5
2023-11-26T07:57:07,2420,42.8014,5.9826,4330,272,186.845,57.215,13.302,36.019,36.599,41.190,4.590,295.4,544.8,291.5
2023-11-26T08:00:08,2420,42.8014,5.9826,4330,272,186.918,57.237,13.302,36.014,36.595,41.195,4.600,295.5,544.8,291.5
2023-11-26T08:03:07,2420,42.8014,5.9826,4330,272,187.096,57.291,13.302,36.003,36.583,41.178,4.595,295.5,544.9,291.5
2023-11-26T08:06:07,2420,42.8014,5.9826,4330,272,186.884,57.227,13.302,36.016,36.596,41.185,4.589,295.5,544.9,291.5
2023-11-26T08:09:08,2420,42.8014,5.9826,4330,272,186.795,57.200,13.302,36.022,36.602,41.198,4.596,295.5,544.9,291.5
2023-11-26T08:12:08,2420,42.8014,5.9826,4330,272,186.796,57.201,13.303,36.021,36.602,41.194,4.593,295.6,544.8,291.5
2023-11-26T08:15:08,2420,42.8014,5.9826,4330,272,186.870,57.222,13.301,36.018,36.598,41.189,4.591,295.5,544.9,291.5
2023-11-26T08:18:07,2420,42.8014,5.9826,4330,272,186.942,57.245,13.302,36.012,36.592,41.186,4.594,295.5,544.8,291.5
2023-11-26T08:21:07,2420,42.8014,5.9826,4330,272,186.772,57.193,13.302,36.023,36.604,41.203,4.599,295.5,544.8,291.5
2023-11-26T08:24:07,2420,42.8014,5.9826,4330,272,186.983,57.256,13.301,36.010,36.590,41.179,4.589,295.6,544.8,291.5
2023-11-26T08:27:07,2420,42.8014,5.9826,4330,272,186.816,57.206,13.302,36.021,36.601,41.190,4.589,295.5,544.9,291.5
2023-11-26T08:30:07,2420,42.8014,5.9826,4330,272,186.954,57.248,13.301,36.012,36.592,41.181,4.588,295.6,544.8,291.5
2023-11-26T08:33:07,2420,42.8014,5.9826,4330,272,186.881,57.224,13.301,36.017,36.598,41.188,4.590,295.5,544.8,291.5
2023-11-26T08:36:07,2420,42.8014,5.9826,4330,272,186.789,57.198,13.302,36.023,36.603,41.191,4.588,295.5,544.9,291.5
2023-11-26T08:39:07,2420,42.8014,5.9826,4330,272,186.876,57.225,13.303,36.016,36.597,41.188,4.591,295.5,544.9,291.5
2023-11-26T08:42:07,2420,42.8014,5.9826,4330,272,186.904,57.233,13.302,36.015,36.595,41.185,4.590,295.5,544.8,291.5
2023-11-26T08:45:07,2420,42.8014,5.9826,4330,272,186.755,57.187,13.301,36.024,36.605,41.196,4.592,295.5,544.8,291.5
2023-11-26T08:48:08,2420,42.8014,5.9826,4330,272,186.830,57.212,13.303,36.019,36.599,41.190,4.591,295.5,544.8,291.5
2023-11-26T08:51:08,2420,42.8014,5.9826,4330,272,186.938,57.243,13.301,36.013,36.593,41.184,4.591,295.5,544.9,291.5
2023-11-26T08:54:08,2420,42.8014,5.9826,4330,272,186.932,57.240,13.301,36.014,36.594,41.187,4.593,295.5,544.8,291.5
2023-11-26T08:57:08,2420,42.8014,5.9826,4330,272,186.855,57.218,13.302,36.018,36.598,41.190,4.592,295.5,544.8,291.5
2023-11-26T09:00:07,2420,42.8014,5.9826,4330,272,186.788,57.196,13.301,36.023,36.603,41.194,4.590,295.5,544.8,291.5
2023-11-26T09:03:07,2420,42.8014,5.9826,4330,272,187.042,57.277,13.303,36.005,36.586,41.179,4.594,295.5,544.9,291.4
2023-11-26T09:06:07,2420,42.8014,5.9826,4330,272,186.766,57.190,13.301,36.024,36.605,41.192,4.588,295.5,544.9,291.5
2023-11-26T09:09:08,2420,42.8014,5.9826,4330,272,186.582,57.134,13.302,36.036,36.616,41.206,4.590,295.4,544.9,291.5
2023-11-26T09:12:08,2420,42.8014,5.9826,4330,272,186.779,57.196,13.303,36.023,36.603,41.198,4.595,295.6,544.9,291.5
2023-11-26T09:15:08,2420,42.8014,5.9826,4330,272,186.752,57.188,13.303,36.024,36.604,41.194,4.590,295.5,544.9,291.5
2023-11-26T09:18:07,2420,42.8014,5.9826,4330,272,186.728,57.179,13.302,36.026,36.606,41.191,4.585,295.5,544.8,291.5
2023-11-26T09:21:07,2420,42.8014,5.9826,4330,272,186.984,57.256,13.300,36.011,36.591,41.183,4.592,295.5,544.9,291.5
2023-11-26T09:24:07,2420,42.8014,5.9826,4330,272,186.996,57.262,13.302,36.009,36.589,41.177,4.588,295.5,544.9,291.5
2023-11-26T09:27:07,2420,42.8014,5.9826,4330,272,186.796,57.200,13.302,36.022,36.602,41.190,4.589,295.5,544.8,291.5
2023-11-26T09:30:07,2420,42.8014,5.9826,4330,272,187.013,57.267,13.302,36.008,36.588,41.182,4.594,295.5,544.8,291.5
2023-11-26T09:33:07,2420,42.8014,5.9826,4330,272,186.694,57.167,13.301,36.029,36.609,41.196,4.587,295.6,544.8,291.5
2023-11-26T09:36:07,2420,42.8014,5.9826,4330,272,186.779,57.195,13.302,36.023,36.603,41.194,4.592,295.5,544.8,291.5
2023-11-26T09:39:07,2420,42.8014,5.9826,4330,272,186.928,57.239,13.301,36.013,36.594,41.184,4.590,295.5,544.8,291.5
2023-11-26T09:42:07,2420,42.8014,5.9826,4330,272,186.760,57.189,13.302,36.024,36.605,41.194,4.590,295.5,544.9,291.5
2023-11-26T09:45:08,2420,42.8014,5.9826,4330,272,186.898,57.231,13.302,36.015,36.595,41.189,4.593,295.5,544.9,291.5
2023-11-26T09:48:08,2420,42.8014,5.9826,4330,272,186.777,57.195,13.303,36.023,36.603,41.193,4.590,295.5,544.8,291.5
2023-11-26T09:51:08,2420,42.8014,5.9826,4330,272,186.799,57.200,13.301,36.022,36.603,41.194,4.591,295.5,544.9,291.5
2023-11-26T09:54:08,2420,42.8014,5.9826,4330,272,186.683,57.165,13.302,36.030,36.610,41.204,4.594,295.6,544.9,291.5
2023-11-26T09:57:07,2420,42.8014,5.9826,4330,272,187.064,57.282,13.302,36.005,36.585,41.182,4.597,295.5,544.8,291.5
2023-11-26T10:00:07,2420,42.8014,5.9826,4330,272,186.760,57.190,13.302,36.024,36.604,41.201,4.596,295.6,544.8,291.5